EDT,Max TemperatureF,Mean TemperatureF,Min TemperatureF,Max Dew PointF,MeanDew PointF,Min DewpointF,Max Humidity, Mean Humidity, Min Humidity, Max Sea Level PressureIn, Mean Sea Level PressureIn, Min Sea Level PressureIn, Max VisibilityMiles, Mean VisibilityMiles, Min VisibilityMiles, Max Wind SpeedMPH, Mean Wind SpeedMPH, Max Gust SpeedMPH,PrecipitationIn, CloudCover, Events, WindDirDegrees
2013-10-1,80,65,50,59,54,47,93,75,43,30.07,30.03,29.97,10,9,5,10,2,,0.00,2,,289
2013-10-2,84,66,51,60,56,49,96,75,42,30.08,30.04,30.00,10,7,2,10,2,,0.00,0,,274
2013-10-3,82,68,53,65,57,52,97,79,47,30.14,30.09,30.05,10,6,2,5,1,,0.00,0,,187
2013-10-4,86,70,57,64,60,55,97,82,46,30.10,30.06,30.01,10,5,2,6,1,,0.00,2,,299
2013-10-5,87,75,63,66,63,60,93,70,44,30.10,30.05,30.00,10,9,5,6,2,,0.00,2,,219
2013-10-6,87,74,61,66,64,59,94,78,49,30.04,29.99,29.92,10,6,2,10,4,21,0.00,1,,143
2013-10-7,73,62,50,66,60,44,94,83,69,30.06,29.85,29.76,10,7,1,16,8,28,0.93,6,Rain,231
2013-10-8,68,55,44,47,44,40,93,72,37,30.32,30.24,30.08,10,10,10,12,2,16,0.01,0,,19
2013-10-9,60,52,43,46,44,41,93,75,59,30.38,30.33,30.28,10,10,10,10,2,,0.00,0,,40
2013-10-10,57,54,51,56,51,45,100,90,69,30.26,30.12,30.03,10,4,0,12,6,17,3.85,8,Fog-Rain,5
2013-10-11,62,58,55,61,57,54,100,93,88,30.06,30.02,29.99,10,3,0,13,7,18,5.16,8,Fog-Rain,29
2013-10-12,69,64,60,58,53,43,90,74,42,30.21,30.11,30.04,10,10,9,13,4,21,0.01,8,Rain,53
2013-10-13,66,60,51,55,52,47,88,75,56,30.37,30.29,30.22,10,9,2,12,8,17,0.04,7,Rain,84
2013-10-14,68,58,48,51,49,46,93,76,51,30.38,30.32,30.25,10,10,7,6,1,,0.00,3,,86
2013-10-15,73,58,45,51,48,43,93,75,45,30.26,30.19,30.10,10,8,4,6,1,,0.00,0,,100
2013-10-16,66,60,54,60,56,50,90,81,70,30.09,30.01,29.91,10,9,5,5,1,,0.00,6,Rain,165
2013-10-17,73,64,57,62,59,51,100,87,66,29.92,29.85,29.70,10,6,0,12,2,28,0.15,6,Fog-Rain,199
2013-10-18,64,53,41,48,41,38,93,63,40,30.03,29.95,29.84,10,10,4,13,6,20,0.00,1,Rain,284
2013-10-19,62,50,39,54,45,37,94,78,52,30.02,29.88,29.77,10,7,2,14,3,23,0.16,4,Rain,214
2013-10-20,61,50,39,38,36,35,86,61,39,30.10,30.02,29.89,10,10,10,12,6,,0.00,1,,260
2013-10-21,66,50,34,43,38,32,96,66,34,30.16,30.07,29.96,10,10,7,15,2,24,0.00,0,,198
2013-10-22,60,48,35,47,40,28,89,69,34,29.94,29.87,29.83,10,10,10,12,4,17,0.00,3,,255
2013-10-23,53,44,35,35,33,30,92,71,44,29.88,29.79,29.70,10,10,10,9,2,,0.00,4,Rain,319
2013-10-24,50,42,37,33,28,24,79,59,39,30.12,30.01,29.89,10,10,10,16,7,25,0.00,3,,269
2013-10-25,54,44,36,32,29,27,76,59,41,30.30,30.23,30.13,10,10,10,15,7,23,0.00,3,,279
2013-10-26,54,44,34,29,27,25,75,50,35,30.30,30.11,29.94,10,10,10,16,7,26,0.00,2,,229
2013-10-27,57,44,30,33,30,28,92,58,36,30.17,30.05,29.94,10,10,10,13,5,21,0.00,1,Snow,280
2013-10-28,60,44,28,40,32,26,93,74,35,30.31,30.24,30.17,10,9,7,5,0,,0.00,0,,280
2013-10-29,60,45,30,41,36,30,96,77,44,30.42,30.37,30.32,10,8,3,5,0,,0.00,1,Snow,75
2013-10-30,66,55,44,52,49,40,100,82,54,30.33,30.24,30.16,10,6,0,8,2,,0.00,5,Fog,169
2013-10-31,68,58,51,58,54,48,94,86,68,30.20,30.05,29.75,10,4,2,12,3,24,0.03,7,Rain,164